This demonstration page uses our WeatherBlox Daily Observations layout. Learn more.

Left ArrowRight Arrow

Hourly Observations for April 16, 2022

Temp ( °F °C ) Dew Point ( °F °C ) Humidity (%) Winds ( mph kmh ) Pressure ( in mb ) Visibility ( mi km ) Precip ( " mm )
12:15 am 00:15 Mostly Cloudy 37 2.5 16 -9 43 43 NNE 15 24 30.20 1023 10 16 0.00 0.00
12:35 am 00:35 Partly Cloudy 37 2.6 15 -9.3 42 42 NNE 14 22 30.20 1023 10 16 0.00 0.00
12:55 am 00:55 Clear 36 2.1 15 -9.7 42 42 NNE 17 28 30.24 1024 10 16 0.00 0.00
1:15 am 01:15 Mostly Cloudy 36 2 14 -10 41 41 NNE 16 26 30.24 1024 10 16 0.00 0.00
1:35 am 01:35 Mostly Cloudy 35 1.5 13 -10.5 41 41 NNE 14 22 30.26 1025 10 16 0.00 0.00
1:55 am 01:55 Clear 34 0.9 13 -10.8 42 42 NNE 12 19 30.26 1025 10 16 0.00 0.00
2:15 am 02:15 Clear 32 -0.1 12 -11 44 44 NNE 8 13 30.28 1025 10 16 0.00 0.00
2:35 am 02:35 Clear 31 -0.8 12 -10.9 47 47 N 9 15 30.28 1026 10 16 0.00 0.00
2:55 am 02:55 Clear 29 -1.4 13 -10.6 50 50 N 12 19 30.29 1026 10 16 0.00 0.00
3:15 am 03:15 Clear 30 -0.9 13 -10.5 49 49 NNE 10 17 30.28 1026 10 16 0.00 0.00
3:35 am 03:35 Clear 30 -1.3 13 -10.5 50 50 NNE 9 15 30.30 1026 10 16 0.00 0.00
3:55 am 03:55 Clear 29 -1.7 13 -10.7 51 51 NNE 10 17 30.32 1027 10 16 0.00 0.00
4:15 am 04:15 Clear 29 -1.7 12 -10.9 50 50 NNE 10 17 30.34 1027 10 16 0.00 0.00
4:35 am 04:35 Clear 29 -1.8 12 -11 50 50 NE 9 15 30.35 1028 10 16 0.00 0.00
4:55 am 04:55 Clear 28 -2.5 12 -11.2 52 52 NNE 8 13 30.37 1028 10 16 0.00 0.00
5:15 am 05:15 Clear 27 -2.7 12 -11.1 53 53 NE 9 15 30.37 1029 10 16 0.00 0.00
5:35 am 05:35 Clear 26 -3.3 12 -11.3 54 54 NNE 6 9 30.40 1029 10 16 0.00 0.00
5:55 am 05:55 Clear 24 -4.6 12 -11.3 60 60 N 5 7 30.41 1030 10 16 0.00 0.00
6:15 am 06:15 Clear 23 -5.1 12 -11.3 62 62 N 5 7 30.42 1030 10 16 0.00 0.00
6:35 am 06:35 Clear 22 -5.7 10 -12 62 62 NNE 6 9 30.42 1030 10 16 0.00 0.00
6:55 am 06:55 Clear 21 -6 11 -11.7 64 64 N 5 7 30.42 1030 10 16 0.00 0.00
7:15 am 07:15 Sunny 22 -5.7 11 -11.5 64 64 N 6 9 30.42 1030 10 16 0.00 0.00
7:35 am 07:35 Sunny 22 -5.5 12 -11 66 66 N 6 9 30.43 1030 10 16 0.00 0.00
7:55 am 07:55 Sunny 25 -3.9 13 -10.4 61 61 N 12 19 30.42 1030 10 16 0.00 0.00
8:15 am 08:15 Sunny 27 -3 14 -10 59 59 NNE 14 22 30.42 1030 10 16 0.00 0.00
8:35 am 08:35 Sunny 28 -2.5 13 -10.3 55 55 NNE 21 33 30.41 1030 10 16 0.00 0.00
8:55 am 08:55 Sunny 29 -1.6 14 -10 53 53 NNE 18 30 30.40 1030 10 16 0.00 0.00
9:15 am 09:15 Sunny 30 -1.1 14 -10 51 51 NNE 16 26 30.41 1030 10 16 0.00 0.00
9:35 am 09:35 Sunny 32 -0.2 14 -10.1 48 48 NNE 18 30 30.40 1029 10 16 0.00 0.00
9:55 am 09:55 Sunny 32 0 14 -10.1 47 47 NNE 18 30 30.40 1029 10 16 0.00 0.00
10:15 am 10:15 Sunny 33 0.3 14 -10 46 46 NNE 15 24 30.39 1029 10 16 0.00 0.00
10:35 am 10:35 Sunny 34 1.1 13 -10.3 43 43 NNE 16 26 30.39 1029 10 16 0.00 0.00
10:55 am 10:55 Sunny 36 2.1 14 -10.1 40 40 NNE 10 17 30.39 1029 10 16 0.00 0.00
11:15 am 11:15 Sunny 37 2.6 14 -10 39 39 NE 9 15 30.38 1029 10 16 0.00 0.00
11:35 am 11:35 Sunny 39 3.8 14 -9.9 36 36 NE 10 17 30.36 1028 10 16 0.00 0.00
11:55 am 11:55 Sunny 39 3.9 14 -10.2 35 35 NNE 10 17 30.36 1028 10 16 0.00 0.00
12:15 pm 12:15 Sunny 40 4.5 14 -10.1 34 34 NE 12 19 30.35 1028 10 16 0.00 0.00
12:35 pm 12:35 Sunny 41 5 14 -9.9 33 33 NE 8 13 30.34 1027 10 16 0.00 0.00
12:55 pm 12:55 Sunny 42 5.5 14 -9.8 33 33 ENE 12 19 30.32 1027 10 16 0.00 0.00
1:15 pm 13:15 Sunny 43 6.3 15 -9.6 31 31 ENE 9 15 30.31 1026 10 16 0.00 0.00
1:35 pm 13:35 Sunny 44 6.5 15 -9.7 31 31 NNE 6 9 30.29 1026 10 16 0.00 0.00
1:55 pm 13:55 Sunny 45 7.3 15 -9.4 30 30 NNE 10 17 30.27 1025 10 16 0.00 0.00
2:15 pm 14:15 Sunny 45 7.4 15 -9.3 30 30 E 3 6 30.26 1025 10 16 0.00 0.00
2:35 pm 14:35 Sunny 46 7.9 16 -9.1 29 29 NE 8 13 30.25 1024 10 16 0.00 0.00
2:55 pm 14:55 Sunny 47 8.1 16 -9 29 29 E 8 13 30.23 1024 10 16 0.00 0.00
3:15 pm 15:15 Sunny 48 8.9 15 -9.3 27 27 E 10 17 30.21 1023 10 16 0.00 0.00
3:35 pm 15:35 Sunny 49 9.2 16 -9.1 27 27 E 10 17 30.20 1023 10 16 0.00 0.00
3:55 pm 15:55 Sunny 49 9.4 15 -9.3 26 26 E 6 9 30.19 1022 10 16 0.00 0.00
4:15 pm 16:15 Partly Cloudy 49 9.6 15 -9.5 25 25 ESE 9 15 30.18 1022 10 16 0.00 0.00
4:35 pm 16:35 Sunny 50 10.2 15 -9.5 24 24 ENE 14 22 30.16 1021 10 16 0.00 0.00
4:55 pm 16:55 Sunny 50 9.9 14 -9.8 24 24 E 12 19 30.15 1021 10 16 0.00 0.00
5:15 pm 17:15 Partly Cloudy 51 10.3 14 -10 23 23 ESE 10 17 30.14 1021 10 16 0.00 0.00
5:35 pm 17:35 Mostly Cloudy 49 9.7 13 -10.4 23 23 E 13 20 30.15 1021 10 16 0.00 0.00
5:55 pm 17:55 Cloudy 50 9.9 13 -10.5 23 23 E 12 19 30.13 1020 10 16 0.00 0.00
6:15 pm 18:15 Cloudy 50 9.8 12 -10.9 22 22 ESE 12 19 30.13 1020 10 16 0.00 0.00
6:35 pm 18:35 Cloudy 49 9.6 12 -11.3 22 22 ESE 14 22 30.14 1021 10 16 0.00 0.00
6:55 pm 18:55 Cloudy 49 9.3 10 -12 21 21 ESE 15 24 30.12 1020 10 16 0.00 0.00
7:15 pm 19:15 Mostly Cloudy 48 8.9 10 -12.1 21 21 ESE 15 24 30.11 1020 10 16 0.00 0.00
7:35 pm 19:35 Partly Cloudy 47 8.6 9 -12.6 21 21 ESE 16 26 30.12 1020 10 16 0.00 0.00
7:55 pm 19:55 Sunny 46 8 10 -12.5 22 22 E 14 22 30.13 1020 10 16 0.00 0.00
8:15 pm 20:15 Sunny 45 7.3 10 -12.5 23 23 E 14 22 30.12 1020 10 16 0.00 0.00
8:35 pm 20:35 Clear 44 6.6 10 -12.5 24 24 E 9 15 30.12 1020 10 16 0.00 0.00
8:55 pm 20:55 Clear 42 5.4 9 -12.6 26 26 ESE 7 11 30.14 1021 10 16 0.00 0.00
9:15 pm 21:15 Clear 39 4 9 -12.8 28 28 E 8 13 30.17 1022 10 16 0.00 0.00
9:35 pm 21:35 Mostly Cloudy 39 4 10 -12.5 29 29 E 7 11 30.18 1022 10 16 0.00 0.00
9:55 pm 21:55 Cloudy 41 5 10 -12.1 28 28 E 9 15 30.16 1021 10 16 0.00 0.00
10:15 pm 22:15 Cloudy 42 5.5 10 -12 27 27 E 9 15 30.16 1021 10 16 0.00 0.00
10:35 pm 22:35 Cloudy 42 5.7 11 -11.8 27 27 E 9 15 30.17 1022 10 16 0.00 0.00
10:55 pm 22:55 Cloudy 42 5.6 11 -11.6 28 28 ESE 9 15 30.17 1022 10 16 0.00 0.00
11:15 pm 23:15 Cloudy 42 5.5 11 -11.5 28 28 ESE 10 17 30.16 1021 10 16 0.00 0.00
11:35 pm 23:35 Cloudy 42 5.5 12 -11.2 29 29 ESE 9 15 30.16 1021 10 16 0.00 0.00
11:55 pm 23:55 Cloudy 42 5.5 12 -11 30 30 SE 6 9 30.17 1022 10 16 0.00 0.00

Powered by AerisWeather